Regional Weather Roundup
Issued by NWS Newport/Morehead, NC

Current Version | Previous Version | Text Only | Print | Product List | Glossary Off
Versions: 1 2 3 4 5 6 7 8 9 10 11 12 13 14 15 16 17 18 19 20 21 22 23 24 25 26 27 28 29 30 31 32 33 34 35 36 37 38 39 40 41 42 43 44 45 46 47 48 49 50
000 ASUS42 KMHX 191210 RWRMHX WEATHER ROUNDUP FOR EASTERN NORTH CAROLINA NATIONAL WEATHER SERVICE NEWPORT/MOREHEAD CITY NC 800 AM EDT FRI SEP 19 2014 NOTE: "FAIR" INDICATES FEW OR NO CLOUDS BELOW 12,000 FEET WITH NO SIGNIFICANT WEATHER AND/OR OBSTRUCTIONS TO VISIBILITY NCZ015>017-031-032-045>047-102-103-191300- NORTH COAST CITY SKY/WX TMP DP RH WIND PRES REMARKS EDENTON MOSUNNY 63 60 93 NE5 30.16R ELIZABETH CITY SUNNY 65 62 90 NW3 30.17R KITTY HAWK SUNNY 72 57 59 E6 30.15R MANTEO SUNNY 71 57 60 E8 30.16R $$ NCZ045>047-081-094-103-104-191300- CENTRAL COAST CITY SKY/WX TMP DP RH WIND PRES REMARKS FRISCO MOSUNNY 71 62 73 NE8 30.13R SWANQUARTER N/A 68 N/A N/A NE2 30.12R $$ NCZ095-097-098-100-101-191300- SOUTHERN COAST CITY SKY/WX TMP DP RH WIND PRES REMARKS BEAUFORT MOSUNNY 70 64 81 NE7 30.13R CEDAR ISLAND N/A 75 N/A N/A NE16G22 30.18R JACKSONVILLE MOSUNNY 66 61 84 NE5 30.12R NEWPORT NOT AVBL PINEY ISLAND MOSUNNY 76 63 64 NE15 30.13R WILMINGTON PTSUNNY 67 62 84 NE9 30.10R $$ NCZ011>013-027>030-043-044-078>080-089-090>093-098-191300- COASTAL PLAIN CITY SKY/WX TMP DP RH WIND PRES REMARKS AHOSKIE SUNNY 59 57 93 CALM 30.17S CLINTON CLOUDY 65 62 87 CALM 30.14R ELIZABETHTOWN CLOUDY 64 61 90 CALM 30.12R GOLDSBORO CLOUDY 64 63 97 CALM 30.13R GREENVILLE MOSUNNY 63 59 88 CALM 30.16R HAVELOCK MOSUNNY 69 64 84 NE12 30.14R KENANSVILLE PTSUNNY 64 61 88 CALM 30.14R KINSTON PTSUNNY 64 61 88 NE3 30.16R NEW BERN PTSUNNY 69 61 75 NE8 30.15R RICHLANDS MOSUNNY 64 57 77 NE9 30.13R ROANOKE RAPIDS NOT AVBL ROCKY MOUNT CLOUDY 64 60 87 NE5 30.16R WASHINGTON MOSUNNY 63 58 86 NE5 30.15R WHITEVILLE CLOUDY 65 60 83 NE7 30.10R $$ AMZ130-135-150-152-154-156-158-170-250-252-270-ANZ085-086-088-633-658-670-191300- MARINE OBSERVATIONS STATION/POSITION TIME TEMP WIND PRES WAVE SWELL AIR SEA DIR/SP/G HT/PER HT/PER (UTC) (F) (DEG/KT/KT) (MB) (FT/S) (FT/S) CHESAPEAKE LIGHT 1100 71 60/ 10/ 12 1021.9 BUOY 44014 1200 73 76 50/ 14/ 17 1020.9 4/10 3/10 DUCK 1200 72 75 60/ 13/ 15 1020.5 2E DUCK 1200 N/A 3/11 2/11 OREGON INLET 1200 72 73 50/ 10/ 14 1020.8 BUOY 44095 1200 76 N/A 5/ 8 2/12 20E OREGON INLET NOT AVBL HATTERAS CG 1200 73 75 40/ 11/ 16 1020.5 DIAMOND BUOY 1200 77 50/ 17/ 21 1019.2 5/ 7 CAPE LOOKOUT 1100 74 40/ 18/ 20 1018.8 BEAUFORT LAB 1200 69 77 20/ 4/ 6 1019.4 30 SE NEW RIVER 1100 77 83 50/ 19/ 23 1018.4 5 SE WRIGHTSVILL 1100 73 80 60/ 16/ 19 N/A BUOY 41002 1144 79 82 80/ 16/ 17 1017.4 4/ 6 2/11 BUOY 41004 1200 80 83 70/ 12/ 14 1016.2 4/ 6 3/ 6 $$

USA.gov is the U.S. government's official web portal to all federal, state and local government web resources and services.